EZY154V EGPH-EGAE

Flight info

Callsign EZY154V
Flight time 0h 36m
Altitude 20000
Route GOSAM P600 TRN N562 MAC N552 RUBEX
Aircraft A320/M-SDE3FGHIRWY/LB1

Departure

Time 2026-04-24 20:00
Airport Edinburgh Airport (EGPH)

Arrival

Time 2026-04-24 20:36
Airport City of Derry Airport (EGAE)
Time Latitude Longitude Altitude Speed Heading
2026-04-24 19:34 55.94906 -3.36496 116 ft 0 kts 148°
2026-04-24 19:45 55.94906 -3.36497 116 ft 0 kts 149°
2026-04-24 19:49 55.94921 -3.36513 112 ft 4 kts 149°
2026-04-24 19:50 55.94976 -3.36508 113 ft 0 kts 238°
2026-04-24 19:54 55.94971 -3.36522 113 ft 4 kts 239°
2026-04-24 19:54 55.94957 -3.36566 112 ft 7 kts 239°
2026-04-24 19:54 55.94916 -3.36686 112 ft 11 kts 239°
2026-04-24 19:55 55.94898 -3.36767 116 ft 10 kts 270°
2026-04-24 19:55 55.94921 -3.36907 113 ft 9 kts 251°
2026-04-24 19:55 55.94892 -3.36999 113 ft 8 kts 239°
2026-04-24 19:55 55.94859 -3.37098 115 ft 13 kts 238°
2026-04-24 19:56 55.94814 -3.37227 114 ft 11 kts 238°
2026-04-24 19:56 55.94767 -3.37366 113 ft 13 kts 239°
2026-04-24 19:56 55.94722 -3.37500 116 ft 13 kts 239°
2026-04-24 19:56 55.94673 -3.37644 115 ft 13 kts 238°
2026-04-24 19:57 55.94625 -3.37786 114 ft 16 kts 239°
2026-04-24 19:57 55.94567 -3.37955 115 ft 18 kts 239°
2026-04-24 19:57 55.94505 -3.38137 114 ft 16 kts 239°
2026-04-24 19:57 55.94450 -3.38301 114 ft 14 kts 239°
2026-04-24 19:58 55.94401 -3.38446 112 ft 13 kts 239°
2026-04-24 19:58 55.94357 -3.38575 113 ft 12 kts 239°
2026-04-24 19:58 55.94314 -3.38703 113 ft 11 kts 239°
2026-04-24 19:58 55.94283 -3.38819 115 ft 10 kts 268°
2026-04-24 19:59 55.94319 -3.38899 114 ft 8 kts 328°
2026-04-24 19:59 55.94372 -3.38956 114 ft 12 kts 330°
2026-04-24 19:59 55.94445 -3.38884 113 ft 18 kts 58°
2026-04-24 19:59 55.94648 -3.38287 114 ft 99 kts 58°
2026-04-24 20:00 55.95132 -3.36856 181 ft 161 kts 58°
2026-04-24 20:00 55.95716 -3.35113 950 ft 168 kts 59°
2026-04-24 20:00 55.96487 -3.33474 1619 ft 179 kts 41°
2026-04-24 20:00 55.97562 -3.32139 1920 ft 201 kts 15°
2026-04-24 20:01 55.98988 -3.32238 2302 ft 219 kts 333°
2026-04-24 20:01 56.00133 -3.34161 2709 ft 241 kts 300°
2026-04-24 20:01 56.00822 -3.36993 3336 ft 255 kts 288°
2026-04-24 20:01 56.01323 -3.40080 4208 ft 261 kts 285°
2026-04-24 20:02 56.01576 -3.42188 4797 ft 264 kts 276°
2026-04-24 20:02 56.01417 -3.46613 5767 ft 272 kts 258°
2026-04-24 20:02 56.00907 -3.49868 5961 ft 271 kts 255°
2026-04-24 20:02 56.00414 -3.53144 6610 ft 273 kts 257°
2026-04-24 20:03 55.99946 -3.56398 7504 ft 274 kts 257°
2026-04-24 20:03 55.99470 -3.59764 8365 ft 277 kts 258°
2026-04-24 20:03 55.99004 -3.63082 9206 ft 281 kts 258°
2026-04-24 20:03 55.98527 -3.66482 10054 ft 284 kts 258°
2026-04-24 20:04 55.98035 -3.69957 10602 ft 298 kts 258°
2026-04-24 20:04 55.97507 -3.73675 10839 ft 321 kts 258°
2026-04-24 20:04 55.96941 -3.77623 11303 ft 334 kts 258°
2026-04-24 20:04 55.96353 -3.81678 12008 ft 339 kts 257°
2026-04-24 20:05 55.95755 -3.85780 12743 ft 343 kts 258°
2026-04-24 20:05 55.95151 -3.89918 13474 ft 346 kts 258°
2026-04-24 20:05 55.94543 -3.94085 14169 ft 350 kts 258°
2026-04-24 20:05 55.93820 -3.98259 14773 ft 356 kts 248°
2026-04-24 20:06 55.93013 -4.00889 15187 ft 361 kts 237°
2026-04-24 20:06 55.91315 -4.04220 15824 ft 367 kts 221°
2026-04-24 20:06 55.89240 -4.06919 16481 ft 370 kts 217°
2026-04-24 20:06 55.87138 -4.09581 17143 ft 372 kts 217°
2026-04-24 20:07 55.85043 -4.12233 17783 ft 375 kts 217°
2026-04-24 20:07 55.82917 -4.14922 18429 ft 377 kts 216°
2026-04-24 20:07 55.80772 -4.17634 18993 ft 379 kts 216°
2026-04-24 20:07 55.78615 -4.20359 19515 ft 382 kts 216°
2026-04-24 20:08 55.76442 -4.23085 20020 ft 385 kts 216°
2026-04-24 20:08 55.74246 -4.25822 20199 ft 386 kts 216°
2026-04-24 20:08 55.72014 -4.28593 20251 ft 397 kts 216°
2026-04-24 20:08 55.69732 -4.31420 20242 ft 401 kts 216°
2026-04-24 20:09 55.67440 -4.34252 20233 ft 402 kts 216°
2026-04-24 20:09 55.65141 -4.37091 20247 ft 403 kts 216°
2026-04-24 20:09 55.62840 -4.39927 20249 ft 403 kts 216°
2026-04-24 20:09 55.60539 -4.42761 20248 ft 403 kts 216°
2026-04-24 20:10 55.58241 -4.45589 20250 ft 403 kts 216°
2026-04-24 20:10 55.55936 -4.48422 20246 ft 403 kts 215°
2026-04-24 20:10 55.53633 -4.51246 20274 ft 403 kts 215°
2026-04-24 20:10 55.51334 -4.54062 20275 ft 403 kts 215°
2026-04-24 20:11 55.49025 -4.56883 20276 ft 403 kts 215°
2026-04-24 20:11 55.46716 -4.59701 20276 ft 403 kts 215°
2026-04-24 20:11 55.44407 -4.62521 20276 ft 403 kts 215°
2026-04-24 20:11 55.42131 -4.65299 20271 ft 403 kts 215°
2026-04-24 20:12 55.39797 -4.68139 20267 ft 404 kts 215°
2026-04-24 20:12 55.37493 -4.70967 20241 ft 404 kts 217°
2026-04-24 20:12 55.35490 -4.74312 20234 ft 403 kts 231°
2026-04-24 20:12 55.33986 -4.78455 20240 ft 403 kts 245°
2026-04-24 20:13 55.33108 -4.83104 20236 ft 402 kts 259°
2026-04-24 20:13 55.32892 -4.87991 20245 ft 402 kts 273°
2026-04-24 20:13 55.33331 -4.92849 20244 ft 402 kts 283°
2026-04-24 20:13 55.33987 -4.97628 20239 ft 403 kts 283°
2026-04-24 20:14 55.34644 -5.02414 20236 ft 403 kts 283°
2026-04-24 20:14 55.35303 -5.07208 20231 ft 404 kts 283°
2026-04-24 20:14 55.35957 -5.11998 20225 ft 404 kts 283°
2026-04-24 20:14 55.36608 -5.16807 20235 ft 404 kts 283°
2026-04-24 20:15 55.37257 -5.21621 20245 ft 405 kts 283°
2026-04-24 20:15 55.37905 -5.26442 20247 ft 405 kts 283°
2026-04-24 20:15 55.38549 -5.31263 20247 ft 405 kts 283°
2026-04-24 20:15 55.39184 -5.36026 20246 ft 405 kts 283°
2026-04-24 20:16 55.39825 -5.40853 20250 ft 405 kts 283°
2026-04-24 20:16 55.40465 -5.45685 20251 ft 405 kts 283°
2026-04-24 20:16 55.41109 -5.50580 20257 ft 405 kts 283°
2026-04-24 20:16 55.41740 -5.55399 20267 ft 405 kts 283°
2026-04-24 20:17 55.42364 -5.60167 20262 ft 405 kts 281°
2026-04-24 20:17 55.42608 -5.70013 20257 ft 404 kts 262°
2026-04-24 20:17 55.42204 -5.74909 20254 ft 404 kts 261°
2026-04-24 20:18 55.41933 -5.78203 20253 ft 404 kts 261°
2026-04-24 20:18 55.41403 -5.84691 20253 ft 404 kts 261°
2026-04-24 20:18 55.41004 -5.89592 20253 ft 404 kts 261°
2026-04-24 20:18 55.40604 -5.94500 20252 ft 404 kts 261°
2026-04-24 20:19 55.40202 -5.99401 20252 ft 404 kts 261°
2026-04-24 20:19 55.39797 -6.04291 20252 ft 405 kts 261°
2026-04-24 20:19 55.39387 -6.09199 20254 ft 405 kts 261°
2026-04-24 20:19 55.38977 -6.14060 20247 ft 397 kts 261°
2026-04-24 20:20 55.38576 -6.18803 20255 ft 389 kts 261°
2026-04-24 20:20 55.38175 -6.23507 20110 ft 388 kts 261°
2026-04-24 20:20 55.37773 -6.28197 19501 ft 388 kts 261°
2026-04-24 20:20 55.37369 -6.32879 18959 ft 386 kts 261°
2026-04-24 20:21 55.36969 -6.37529 18448 ft 384 kts 261°
2026-04-24 20:21 55.36570 -6.42155 17891 ft 381 kts 261°
2026-04-24 20:21 55.36173 -6.46744 17365 ft 379 kts 261°
2026-04-24 20:21 55.35783 -6.51245 16860 ft 376 kts 261°
2026-04-24 20:22 55.35384 -6.55830 16363 ft 373 kts 261°
2026-04-24 20:22 55.34990 -6.60324 15878 ft 370 kts 261°
2026-04-24 20:22 55.34597 -6.64765 15416 ft 368 kts 261°
2026-04-24 20:22 55.34202 -6.69198 14890 ft 367 kts 261°
2026-04-24 20:23 55.33804 -6.73621 14393 ft 366 kts 260°
2026-04-24 20:23 55.33405 -6.78041 13856 ft 366 kts 260°
2026-04-24 20:23 55.33008 -6.82448 13324 ft 364 kts 260°
2026-04-24 20:23 55.32537 -6.86738 12731 ft 362 kts 252°
2026-04-24 20:24 55.31520 -6.90698 12277 ft 356 kts 237°
2026-04-24 20:24 55.29983 -6.94054 11958 ft 345 kts 222°
2026-04-24 20:24 55.28125 -6.96549 11824 ft 330 kts 209°
2026-04-24 20:24 55.26104 -6.98298 11700 ft 318 kts 203°
2026-04-24 20:25 55.24132 -6.99894 11572 ft 307 kts 203°
2026-04-24 20:25 55.22225 -7.01438 11437 ft 297 kts 203°
2026-04-24 20:25 55.20362 -7.02938 11186 ft 293 kts 203°
2026-04-24 20:25 55.18519 -7.04416 10868 ft 291 kts 203°
2026-04-24 20:26 55.16687 -7.05884 10540 ft 289 kts 203°
2026-04-24 20:26 55.14865 -7.07346 10212 ft 287 kts 203°
2026-04-24 20:26 55.13053 -7.08801 9853 ft 286 kts 203°
2026-04-24 20:26 55.11251 -7.10245 9478 ft 284 kts 203°
2026-04-24 20:27 55.09457 -7.11680 9102 ft 283 kts 203°
2026-04-24 20:27 55.07676 -7.13102 8733 ft 281 kts 202°
2026-04-24 20:27 55.05923 -7.14573 8384 ft 280 kts 209°
2026-04-24 20:27 55.04412 -7.16707 8011 ft 281 kts 226°
2026-04-24 20:28 55.03319 -7.19481 7633 ft 282 kts 239°
2026-04-24 20:28 55.02380 -7.22483 7247 ft 281 kts 239°
2026-04-24 20:28 55.01443 -7.25467 6869 ft 280 kts 239°
2026-04-24 20:28 55.00522 -7.28396 6740 ft 269 kts 239°
2026-04-24 20:29 54.99938 -7.30253 6657 ft 261 kts 239°
2026-04-24 20:29 54.98802 -7.33850 6488 ft 247 kts 238°
2026-04-24 20:29 54.97983 -7.36430 6359 ft 239 kts 238°
2026-04-24 20:29 54.97189 -7.38926 6228 ft 232 kts 238°
2026-04-24 20:30 54.96423 -7.41342 6098 ft 224 kts 238°
2026-04-24 20:30 54.95687 -7.43678 5970 ft 217 kts 238°
2026-04-24 20:30 54.94997 -7.45952 5838 ft 212 kts 246°
2026-04-24 20:30 54.94917 -7.48431 5727 ft 206 kts 287°
2026-04-24 20:31 54.95742 -7.50348 5594 ft 196 kts 329°
2026-04-24 20:31 54.96994 -7.50743 5447 ft 181 kts 21°
2026-04-24 20:31 54.97860 -7.49422 5318 ft 163 kts 73°
2026-04-24 20:31 54.98181 -7.47477 4748 ft 180 kts 73°
2026-04-24 20:32 54.98639 -7.45255 3919 ft 207 kts 72°
2026-04-24 20:32 54.99132 -7.42834 3306 ft 215 kts 72°
2026-04-24 20:32 54.99623 -7.40361 2828 ft 215 kts 73°
2026-04-24 20:32 55.00102 -7.37935 2507 ft 208 kts 73°
2026-04-24 20:33 55.00559 -7.35615 2248 ft 191 kts 74°
2026-04-24 20:33 55.00963 -7.33567 1978 ft 168 kts 75°
2026-04-24 20:33 55.01321 -7.31743 1754 ft 152 kts 74°
2026-04-24 20:33 55.01647 -7.30080 1555 ft 140 kts 75°
2026-04-24 20:34 55.01954 -7.28510 1380 ft 133 kts 74°
2026-04-24 20:34 55.02249 -7.27001 1197 ft 131 kts 73°
2026-04-24 20:34 55.02544 -7.25513 1022 ft 130 kts 71°
2026-04-24 20:34 55.02855 -7.24070 861 ft 128 kts 72°
2026-04-24 20:35 55.03153 -7.22601 747 ft 130 kts 75°
2026-04-24 20:35 55.03418 -7.21108 566 ft 128 kts 74°
2026-04-24 20:35 55.03674 -7.19628 380 ft 128 kts 77°
2026-04-24 20:35 55.03929 -7.18149 123 ft 129 kts 76°
2026-04-24 20:36 55.04169 -7.16699 42 ft 116 kts 74°
2026-04-24 20:36 55.04356 -7.15645 29 ft 42 kts 72°
2026-04-24 20:36 55.04420 -7.15287 27 ft 26 kts 73°
2026-04-24 20:36 55.04471 -7.14992 22 ft 26 kts 73°
2026-04-24 20:37 55.04508 -7.14797 20 ft 2 kts 36°
2026-04-24 20:37 55.04512 -7.14810 20 ft 1 kts 295°
2026-04-24 20:37 55.04506 -7.14829 21 ft 3 kts 249°
2026-04-24 20:37 55.04487 -7.14926 21 ft 9 kts 252°
2026-04-24 20:38 55.04469 -7.15039 25 ft 11 kts 255°
2026-04-24 20:38 55.04452 -7.15145 24 ft 7 kts 254°
2026-04-24 20:38 55.04441 -7.15210 28 ft 4 kts 254°
2026-04-24 20:38 55.04423 -7.15318 30 ft 20 kts 254°
2026-04-24 20:39 55.04381 -7.15563 29 ft 21 kts 253°
2026-04-24 20:39 55.04335 -7.15815 31 ft 22 kts 252°
2026-04-24 20:39 55.04293 -7.15938 31 ft 11 kts 204°
2026-04-24 20:39 55.04222 -7.15928 31 ft 10 kts 169°
2026-04-24 20:40 55.04150 -7.15902 31 ft 11 kts 168°
2026-04-24 20:40 55.04079 -7.15850 31 ft 12 kts 127°
2026-04-24 20:40 55.04050 -7.15762 31 ft 0 kts 170°
2026-04-24 20:40 55.04046 -7.15760 31 ft 1 kts 165°
2026-04-24 20:41 55.04027 -7.15751 31 ft 3 kts 167°
2026-04-24 20:41 55.04017 -7.15748 31 ft 1 kts 167°
2026-04-24 20:41 55.04013 -7.15746 31 ft 1 kts 167°
2026-04-24 20:41 55.04010 -7.15745 31 ft 0 kts 167°